Weather History for EGQK - October, 2012

Change the Weather History Date:

Sunday, October 7, 2012

  Actual Average (WUND) Record (WUND)
Temperature  
Mean Temperature 48 °F -  
Max Temperature 54 °F 53 °F - (-1)
Min Temperature 41 °F 41 °F - (-1)
Degree Days  
Heating Degree Days 18    
Moisture  
Dew Point 38 °F    
Average Humidity 69    
Maximum Humidity 81    
Minimum Humidity 47    
Precipitation  
Precipitation 0.00 in 0.08 in - ()
Sea Level Pressure  
Sea Level Pressure 30.10 in    
Wind  
Wind Speed 9 mph ()    
Max Wind Speed 17 mph    
Max Gust Speed -    
Visibility 6.2 miles    
Events      
Averages and records for this station are not official NWS values.
T = Trace of Precipitation, MM = Missing Value Source: Averaged Metar Reports

Daily Weather History Graph

Daily Weather History Graph

Search for Another Location

Airport or City:

Trip Planner

Search our weather history database for the weather conditions in past years. The results will help you decide how hot, cold, wet, or windy it might be!

Date:

Astronomy

Oct. 07, 2012 Rise Set
Actual Time 7:31 AM BST 6:30 PM BST
Civil Twilight 6:52 AM BST 7:09 PM BST
Nautical Twilight 6:07 AM BST 7:54 PM BST
Astronomical Twilight 5:21 AM BST 8:40 PM BST
Moon 10:35 PM BST (10/7) 2:54 PM BST (10/7)
Length of Visible Light 12h 16m
Length of Day
10h 59m
Waning Gibbous, 58% of the Moon is Illuminated
Oct 7
Waning Gibbous
Oct 8
Last Quarter
Oct 15
New
Oct 22
First Quarter
Oct 29
Full

Hourly Weather History & Observations

Time (BST) Temp. Windchill Dew Point Humidity Pressure Visibility Wind Dir Wind Speed Gust Speed Precip Events Conditions
12:50 AM 46 °F - 37 °F 62% 30.04 in 31 mi WSW 11.5 mph - -   Scattered Clouds
12:50 AM 46.4 °F 41.1 °F 37.4 °F 71% 30.04 in 6.2 mi WSW 11.5 mph - N/A   Mostly Cloudy
1:50 AM 42.8 °F 38.0 °F 37.4 °F 81% 30.04 in 6.2 mi SW 8.1 mph - N/A   Unknown
2:50 AM 42.8 °F 38.0 °F 35.6 °F 76% 30.04 in 6.2 mi SW 8.1 mph - N/A   Scattered Clouds
3:50 AM 42 °F - 37 °F 76% 30.06 in 34 mi SW 8.1 mph - -   Partly Cloudy
3:50 AM 42.8 °F 38.0 °F 37.4 °F 81% 30.04 in 6.2 mi SW 8.1 mph - N/A   Scattered Clouds
4:50 AM 42.8 °F 37.0 °F 37.4 °F 81% 30.06 in 6.2 mi SW 10.4 mph - N/A   Partly Cloudy
5:50 AM 42.8 °F 37.0 °F 37.4 °F 81% 30.06 in 6.2 mi SW 10.4 mph - N/A   Mostly Cloudy
6:50 AM 43 °F - 37 °F 74% 30.09 in 34 mi SW 10.4 mph - -  
6:50 AM 42.8 °F 37.0 °F 37.4 °F 81% 30.06 in 6.2 mi SW 10.4 mph - N/A   Mostly Cloudy
7:50 AM 42.8 °F 38.6 °F 37.4 °F 81% 30.09 in 6.2 mi SW 6.9 mph - N/A   Mostly Cloudy
8:50 AM 44.6 °F 39.2 °F 35.6 °F 71% 30.09 in 6.2 mi SW 10.4 mph - N/A   Unknown
9:50 AM 48 °F - 38 °F 57% 30.13 in 31 mi WSW 10.4 mph - -  
9:50 AM 48.2 °F - 37.4 °F 66% 30.12 in 6.2 mi WSW 10.4 mph - N/A   Unknown
10:50 AM 50.0 °F - 39.2 °F 66% 30.12 in 6.2 mi WSW 13.8 mph - N/A   Unknown
11:50 AM 51.8 °F - 39.2 °F 62% 30.12 in 6.2 mi WSW 17.3 mph - N/A   Unknown
12:50 PM 53 °F - 38 °F 47% 30.15 in 31 mi WSW 11.5 mph - -   Partly Cloudy
12:50 PM 51.8 °F - 39.2 °F 62% 30.12 in 6.2 mi WSW 11.5 mph - N/A   Scattered Clouds
1:50 PM 53.6 °F - 39.2 °F 58% 30.12 in 6.2 mi WSW 13.8 mph - N/A   Mostly Cloudy
2:50 PM 51.8 °F - 41.0 °F 67% 30.12 in 6.2 mi West 12.7 mph - N/A   Mostly Cloudy
3:50 PM 53 °F - 39 °F 49% 30.14 in 37 mi West 11.5 mph - -   Mostly Cloudy
3:50 PM 51.8 °F - 39.2 °F 62% 30.12 in 6.2 mi West 11.5 mph - N/A   Mostly Cloudy
4:50 PM 51.8 °F - 39.2 °F 62% 30.12 in 6.2 mi West 11.5 mph - N/A   Scattered Clouds
5:50 PM 51.8 °F - 39.2 °F 62% 30.12 in 6.2 mi WSW 9.2 mph - N/A   Unknown
6:50 PM 46 °F - 38 °F 64% 30.14 in 31 mi SW 8.1 mph - -  
6:50 PM 46.4 °F 42.4 °F 37.4 °F 71% 30.12 in 6.2 mi SW 8.1 mph - N/A   Unknown
7:50 PM 44.6 °F 41.4 °F 37.4 °F 76% 30.12 in 6.2 mi SW 5.8 mph - N/A   Partly Cloudy
8:50 PM 46.4 °F 42.9 °F 37.4 °F 71% 30.12 in 6.2 mi SW 6.9 mph - N/A   Mostly Cloudy
9:50 PM 43 °F - 36 °F 68% 30.13 in 34 mi SSW 6.9 mph - -   Partly Cloudy
9:50 PM 42.8 °F 38.6 °F 35.6 °F 76% 30.12 in 6.2 mi SSW 6.9 mph - N/A   Scattered Clouds
10:50 PM 42.8 °F 39.3 °F 35.6 °F 76% 30.09 in 6.2 mi SW 5.8 mph - N/A   Scattered Clouds
11:50 PM 42.8 °F 39.3 °F 35.6 °F 76% 30.09 in 6.2 mi South 5.8 mph - N/A   Mostly Cloudy